Regional Weather Roundup
Issued by NWS

Home | Current Version | Previous Version | Graphics & Text | Print | Product List | Glossary On
Versions: 1 2 3 4 5 6 7 8 9 10 11 12 13 14 15 16 17 18 19 20 21 22 23 24 25 26 27 28 29 30 31 32 33 34 35 36 37 38 39 40 41 42 43 44 45 46 47 48 49 50
000
ASUS44 KMEG 291300
RWRTN
TENNESSEE HOURLY STATE WEATHER ROUNDUP
NATIONAL WEATHER SERVICE MEMPHIS TN
700 AM CST THU JAN 29 2015

TNZ002-004-019-021-049-052-054-088>092-291400-
WEST TENNESSEE

CITY           SKY/WX    TMP DP  RH WIND       PRES   REMARKS
MEMPHIS INTL   CLOUDY    55  42  61 SW13G21   30.04R
NWS MEMPHIS      N/A     56 N/A N/A MISG        N/A
JACKSON        PTCLDY    51  37  58 S14       30.02R
DYERSBURG      CLEAR     55  34  44 SW17G25   30.00R
UNION CITY     CLEAR     48  39  71 S8        29.95R
PARIS          CLEAR     46  36  66 S8        29.98R
LEXINGTON      CLEAR     48  36  61 S13       30.03R
SAVANNAH       CLOUDY    52  34  50 S13       30.08R
$$

TNZ008-025-027-028-033-062-065-066-291400-
NORTH MIDDLE TENNESSEE

CITY           SKY/WX    TMP DP  RH WIND       PRES   REMARKS
NASHVILLE      CLOUDY    50  32  50 S21G35    30.03F
CLARKSVILLE    MOCLDY    51  35  54 S15       29.96S
COOKEVILLE     MOCLDY    45  30  57 S8        30.10S
CROSSVILLE     CLOUDY    41  22  46 VRB7G17   30.14R
$$

TNZ061-075-076-078-094-096-097-291400-
SOUTH MIDDLE TENNESSEE

CITY           SKY/WX    TMP DP  RH WIND       PRES   REMARKS
$$

TNZ017-018-042-046-047-291400-
NORTHEAST TENNESSEE

CITY           SKY/WX    TMP DP  RH WIND       PRES   REMARKS
TRI CITIES     MOCLDY    27  22  81 CALM      30.19R
ELIZABETHTON   SUNNY     30  21  69 NE5       30.17S WCI  25
$$

TNZ012-013-036-069-073-074-291400-
CENTRAL EAST TENNESSEE

CITY           SKY/WX    TMP DP  RH WIND       PRES   REMARKS
KNOXVILLE      CLOUDY    28  23  81 CALM      30.20R
OAK RIDGE      MOCLDY    35  22  58 SW5       30.21R WCI  31
$$

TNZ083-085-099-291400-
SOUTHEAST TENNESSEE

CITY           SKY/WX    TMP DP  RH WIND       PRES   REMARKS
CHATTANOOGA    CLOUDY    33  25  72 S3        30.24R
$$

SKY/WX REPORTED AS FAIR MEANS FEW OR NO CLOUDS BELOW
12 THOUSAND FEET.



USA.gov is the U.S. government's official web portal to all federal, state and local government web resources and services.